CW3112 Weather Reports


time (UTC)temp
C
wind
direction
speed
KPH
gust
KPH
rain 1hr
cm
rain 24hr
cm
rain mn
cm
humidity
%
barometer
mb
20260504204203 27 332 1.6 4.8 0.00 0.00 0.00 37 1014.4
20260504201203 27 98 0.0 1.6 0.00 0.00 0.00 36 1014.8
20260504200204 28 96 0.0 9.7 0.00 0.00 0.00 36 1014.9
20260504193203 28 78 3.2 4.8 0.00 0.00 0.00 35 1015.1
20260504191203 27 140 0.0 3.2 0.00 0.00 0.00 37 1015.3
20260504190204 27 169 0.0 4.8 0.00 0.00 0.00 38 1015.5
20260504184204 27 105 0.0 3.2 0.00 0.00 0.00 38 1015.9
20260504183204 27 86 1.6 3.2 0.00 0.00 0.00 39 1016.2
20260504181204 27 161 0.0 4.8 0.00 0.00 0.00 44 1016.3
20260504180204 27 77 1.6 3.2 0.00 0.00 0.00 41 1016.5
20260504173204 26 26 0.0 4.8 0.00 0.00 0.00 41 1016.8
20260504171204 26 39 0.0 3.2 0.00 0.00 0.00 42 1017.0
20260504170203 25 94 1.6 4.8 0.00 0.00 0.00 44 1017.3
20260504160204 23 105 1.6 4.8 0.00 0.00 0.00 47 1017.9
20260504150204 20 43 0.0 0.0 0.00 0.00 0.00 52 1018.1
20260504130203 8 43 0.0 0.0 0.00 0.00 0.00 97 1018.4
20260504120203 6 43 0.0 0.0 0.00 0.00 0.00 95 1018.6
20260504100204 7 43 0.0 0.0 0.00 0.00 0.00 92 1017.9
20260504081203 7 43 0.0 0.0 0.00 0.00 0.00 89 1017.8
20260504080204 7 43 0.0 0.0 0.00 0.00 0.00 88 1017.9
20260504060204 9 43 0.0 0.0 0.00 0.00 0.00 82 1018.2
20260504050204 10 43 0.0 0.0 0.00 0.00 0.00 79 1018.6
20260504044204 10 43 0.0 0.0 0.00 0.00 0.00 78 1018.5
20260504043204 10 43 0.0 0.0 0.00 0.00 0.00 77 1018.6
20260504041204 11 43 0.0 0.0 0.00 0.00 0.00 75 1018.6
20260504040204 11 43 0.0 0.0 0.00 0.00 0.00 74 1018.6
20260504034204 11 43 0.0 0.0 0.00 0.00 0.00 72 1018.7
20260504033204 11 43 0.0 0.0 0.00 0.00 0.00 71 1018.7
20260504030205 12 43 0.0 0.0 0.00 0.00 0.00 68 1018.6
20260504024203 12 43 0.0 0.0 0.00 0.00 0.00 64 1018.5
20260504023204 13 43 0.0 0.0 0.00 0.00 0.00 63 1018.4
20260504021206 13 43 0.0 0.0 0.00 0.00 0.00 60 1018.2
20260504020204 14 43 0.0 0.0 0.00 0.00 0.00 58 1018.0
20260504014204 15 43 0.0 0.0 0.00 0.00 0.00 55 1017.9
20260504013204 15 43 0.0 0.0 0.00 0.00 0.00 56 1017.8
20260504011204 16 43 0.0 0.0 0.00 0.00 0.00 49 1017.6
20260504004204 17 43 0.0 0.0 0.00 0.00 0.00 47 1017.2
20260504003203 17 43 0.0 0.0 0.00 0.00 0.00 49 1017.0
20260504001203 18 43 0.0 0.0 0.00 0.00 0.00 50 1017.1
20260504000204 18 43 0.0 0.0 0.00 0.00 0.00 49 1017.2
20260503234204 19 43 0.0 0.0 0.00 0.00 0.00 47 1017.0
20260503233205 20 43 0.0 0.0 0.00 0.00 0.00 46 1016.9
20260503231204 20 43 0.0 0.0 0.00 0.00 0.00 44 1016.8
20260503230204 21 43 0.0 1.6 0.00 0.00 0.00 41 1016.9
20260503224204 22 347 0.0 1.6 0.00 0.00 0.00 39 1017.0
20260503223204 22 67 0.0 3.2 0.00 0.00 0.00 40 1017.2
20260503221204 23 64 0.0 3.2 0.00 0.00 0.00 38 1017.1
20260503220204 23 59 0.0 3.2 0.00 0.00 0.00 38 1017.2
20260503214204 23 311 0.0 1.6 0.00 0.00 0.00 36 1017.3
20260503213204 23 57 0.0 4.8 0.00 0.00 0.00 36 1017.5
20260503211203 23 121 0.0 1.6 0.00 0.00 0.00 35 1017.4
20260503210204 23 200 0.0 3.2 0.00 0.00 0.00 37 1017.6